Latest Weather Observations for Richmond

IDN60901

Issued at 8:15 pm EST Wednesday 23 April 2014 (issued every 10 minutes, with the page automatically refreshed every 10 minutes)

About weather observations | Map of Sydney area stations | Latest observations for Sydney area | Other Formats
Station Details ID: 067105 Name: RICHMOND RAAF Lat: -33.60 Lon: 150.78 Height: 19.0 m
Data from the previous 72 hours. | See also: Recent months at Richmond
Date/Time
EST
Tmp

°C
App
Tmp
°C
Dew
Point
°C
Rel
Hum
%
Delta-T

°C
Wind Press
QNH
hPa
Press
MSL
hPa
Rain
since
9 am
mm
Dir
 
Spd
km/h
Gust
km/h
Spd
kts
Gust
kts
23/08:00pm 14.3 14.9 11.8 85 1.3 SSE 0 0 0 0 1015.7 - 0.0
23/07:30pm 15.5 16.1 11.9 79 2.0 CALM 0 0 0 0 1015.6 - 0.0
23/07:00pm 15.9 16.3 11.3 74 2.5 CALM 0 0 0 0 1015.4 - 0.0
23/06:30pm 17.2 17.3 10.1 63 3.8 CALM 0 0 0 0 1015.3 - 0.0
23/06:00pm 18.3 18.3 9.9 58 4.5 CALM 0 0 0 0 1014.9 1014.8 0.0
23/05:30pm 20.9 20.8 9.5 48 6.1 CALM 0 0 0 0 1014.8 - 0.0
23/05:00pm 23.1 22.6 8.0 38 8.0 CALM 0 0 0 0 1014.6 - 0.0
23/04:30pm 23.9 23.8 9.5 40 7.8 CALM 0 6 0 3 1014.5 - 0.0
23/04:00pm 24.5 23.7 8.0 35 8.8 NE 2 7 1 4 1014.4 - 0.0
23/03:30pm 24.4 23.1 7.5 34 8.9 NNE 4 7 2 4 1014.6 - 0.0
23/03:00pm 24.8 24.1 7.0 32 9.3 CALM 0 7 0 4 1014.7 1014.6 0.0
23/02:30pm 24.4 23.0 7.1 33 9.0 ENE 4 11 2 6 1014.8 - 0.0
23/02:00pm 23.9 23.5 8.3 37 8.3 CALM 0 0 0 0 1015.0 - 0.0
23/01:30pm 22.9 22.5 8.2 39 7.8 SSE 0 0 0 0 1015.2 - 0.0
23/01:00pm 22.2 21.8 9.7 45 6.8 ENE 2 9 1 5 1015.5 - 0.0
23/12:30pm 20.9 19.5 8.9 46 6.3 ENE 6 11 3 6 1015.9 - 0.0
23/12:00pm 20.5 20.8 10.9 54 5.2 CALM 0 6 0 3 1016.4 1016.3 0.0
23/11:30am 19.1 18.7 9.9 55 4.9 NE 2 9 1 5 1016.8 - 0.0
23/11:00am 18.4 18.2 10.5 60 4.2 NNE 2 7 1 4 1017.1 - 0.0
23/10:30am 16.2 15.0 10.3 68 3.1 N 7 9 4 5 1017.5 - 0.0
23/10:00am 14.7 15.3 12.0 84 1.5 CALM 0 0 0 0 1017.9 - 0.0
23/09:30am 13.9 14.5 11.8 87 1.1 CALM 0 0 0 0 1018.1 - 0.0
23/09:00am 13.0 13.8 12.4 96 0.3 CALM 0 0 0 0 1018.3 1018.2 0.0
23/08:30am 12.2 12.6 11.4 95 0.4 CALM 0 0 0 0 1018.3 - 0.0
23/08:00am 11.6 12.0 11.4 99 0.1 CALM 0 0 0 0 1018.1 - 0.0
23/07:30am 9.3 9.2 9.3 100 0.0 CALM 0 0 0 0 1017.9 - 0.0
23/07:13am 8.1 7.7 8.1 100 0.0 CALM 0 0 0 0 1017.8 - 0.0
23/07:00am 7.8 7.3 7.8 100 0.0 S 0 0 0 0 1017.6 - 0.0
23/06:55am 7.3 6.7 7.3 100 0.0 CALM 0 2 0 1 1017.6 - 0.0
23/06:30am 6.9 6.2 6.9 100 0.0 CALM 0 0 0 0 1017.6 - 0.0
23/06:10am 7.2 6.6 7.2 100 0.0 CALM 0 4 0 2 1017.4 - 0.0
23/06:03am 7.6 6.7 7.6 100 0.0 SSE 2 7 1 4 1017.3 - 0.0
23/06:00am 7.6 6.7 7.6 100 0.0 SE 2 7 1 4 1017.3 1017.2 0.0
23/05:30am 6.7 5.9 6.7 100 0.0 NNW 0 0 0 0 1017.1 - 0.0
23/05:26am 7.4 6.8 7.4 100 0.0 CALM 0 0 0 0 1017.0 - 0.0
23/05:06am 7.2 6.6 7.2 100 0.0 CALM 0 0 0 0 1017.1 - 0.0
23/05:00am 7.3 6.7 7.3 100 0.0 CALM 0 0 0 0 1017.0 - 0.0
23/04:33am 8.5 8.2 8.5 100 0.0 CALM 0 0 0 0 1017.0 - 0.0
23/04:30am 8.3 7.9 8.3 100 0.0 CALM 0 0 0 0 1017.0 - 0.0
23/04:00am 8.6 8.3 8.6 100 0.0 CALM 0 0 0 0 1016.9 - 0.0
23/03:41am 8.2 7.8 8.2 100 0.0 CALM 0 0 0 0 1016.8 - 0.0
23/03:30am 8.0 7.5 8.0 100 0.0 CALM 0 0 0 0 1016.8 - 0.0
23/03:04am 8.5 8.2 8.5 100 0.0 CALM 0 0 0 0 1016.8 - 0.0
23/03:00am 8.3 7.9 8.3 100 0.0 CALM 0 0 0 0 1016.8 1016.7 0.0
23/02:30am 9.4 9.3 9.4 100 0.0 CALM 0 0 0 0 1017.0 - 0.0
23/02:17am 9.5 9.4 9.5 100 0.0 CALM 0 0 0 0 1016.9 - 0.0
23/02:00am 9.9 9.9 9.9 100 0.0 CALM 0 0 0 0 1016.9 - 0.0
23/01:47am 9.6 9.5 9.6 100 0.0 CALM 0 0 0 0 1016.9 - 0.0
23/01:30am 10.3 10.4 10.3 100 0.0 CALM 0 0 0 0 1016.9 - 0.0
23/01:15am 10.6 10.8 10.6 100 0.0 CALM 0 0 0 0 1017.0 - 0.0
23/01:00am 10.2 10.3 10.2 100 0.0 CALM 0 0 0 0 1017.0 - 0.0
23/12:56am 9.9 9.9 9.9 100 0.0 CALM 0 0 0 0 1016.9 - 0.0
23/12:30am 10.5 10.7 10.5 100 0.0 CALM 0 0 0 0 1016.9 - 0.0
23/12:00am 11.8 12.4 11.8 100 0.0 N 0 0 0 0 1016.7 1016.6 0.0
 
Date/Time
EST
Tmp

°C
App
Tmp
°C
Dew
Point
°C
Rel
Hum
%
Delta-T

°C
Wind Press
QNH
hPa
Press
MSL
hPa
Rain
since
9 am
mm
Dir
 
Spd
km/h
Gust
km/h
Spd
kts
Gust
kts
22/11:30pm 12.1 12.8 12.1 100 0.0 CALM 0 0 0 0 1016.6 - 0.0
22/11:00pm 12.5 13.2 12.2 98 0.2 CALM 0 0 0 0 1016.6 - 0.0
22/10:30pm 12.7 13.3 11.9 95 0.4 CALM 0 0 0 0 1016.8 - 0.0
22/10:00pm 14.0 14.9 12.9 93 0.6 CALM 0 0 0 0 1016.7 - 0.0
22/09:30pm 13.8 14.4 11.8 88 1.1 CALM 0 0 0 0 1016.9 - 0.0
22/09:00pm 14.7 15.6 12.9 89 1.0 CALM 0 0 0 0 1016.7 1016.6 0.0
22/08:30pm 15.5 16.6 13.5 88 1.1 CALM 0 0 0 0 1016.7 - 0.0
22/08:00pm 16.8 18.0 13.9 83 1.6 CALM 0 0 0 0 1016.5 - 0.0
22/07:30pm 17.3 18.6 14.2 82 1.8 CALM 0 0 0 0 1016.3 - 0.0
22/07:00pm 18.4 18.1 13.3 72 2.9 NW 7 13 4 7 1016.2 - 0.0
22/06:30pm 17.8 19.3 14.7 82 1.8 CALM 0 2 0 1 1015.8 - 0.0
22/06:00pm 19.1 18.6 13.9 72 3.0 NW 9 13 5 7 1015.4 1015.3 0.0
22/05:30pm 20.2 21.5 14.1 68 3.5 CALM 0 0 0 0 1015.3 - 0.0
22/05:00pm 21.3 22.0 13.5 61 4.5 NNW 2 11 1 6 1015.2 - 0.0
22/04:30pm 23.5 24.7 13.9 55 5.6 CALM 0 2 0 1 1014.9 - 0.0
22/04:00pm 23.4 24.2 12.7 51 6.1 CALM 0 0 0 0 1014.8 - 0.0
22/03:30pm 23.7 24.5 12.7 50 6.3 CALM 0 0 0 0 1014.9 - 0.0
22/03:00pm 24.4 25.2 12.4 47 6.9 CALM 0 0 0 0 1015.0 1014.9 0.0
22/02:30pm 23.8 24.5 12.1 48 6.7 CALM 0 0 0 0 1014.9 - 0.0
22/02:00pm 23.0 23.6 12.0 50 6.2 CALM 0 6 0 3 1015.0 - 0.0
22/01:30pm 22.9 23.6 12.2 51 6.1 CALM 0 7 0 4 1015.2 - 0.0
22/01:00pm 22.4 23.0 11.8 51 6.0 CALM 0 6 0 3 1015.5 - 0.0
22/12:30pm 21.2 21.6 11.2 53 5.5 CALM 0 0 0 0 1016.0 - 0.0
22/12:00pm 20.9 21.1 10.7 52 5.6 CALM 0 4 0 2 1016.6 1016.5 0.0
22/11:30am 18.7 18.8 10.3 58 4.5 CALM 0 0 0 0 1017.3 - 0.0
22/11:00am 17.5 16.9 10.4 63 3.8 WSW 4 9 2 5 1017.8 - 0.0
22/10:30am 16.4 16.7 10.9 70 2.9 CALM 0 0 0 0 1018.2 - 0.0
22/10:00am 16.0 16.4 11.4 74 2.5 CALM 0 0 0 0 1018.6 - 0.0
22/09:30am 13.6 13.8 12.0 90 0.9 SW 2 6 1 3 1018.8 - 0.0
22/09:00am 12.7 13.4 12.2 97 0.3 CALM 0 0 0 0 1019.0 1018.9 0.0
22/08:30am 11.7 12.2 11.5 99 0.1 CALM 0 0 0 0 1019.2 - 0.0
22/08:00am 10.3 10.4 10.3 100 0.0 CALM 0 0 0 0 1019.0 - 0.0
22/07:30am 9.2 9.0 9.2 100 0.0 CALM 0 0 0 0 1019.0 - 0.0
22/07:13am 8.5 8.2 8.5 100 0.0 CALM 0 0 0 0 1019.1 - 0.0
22/07:00am 7.7 7.2 7.7 100 0.0 CALM 0 0 0 0 1019.1 - 0.0
22/06:50am 7.3 6.7 7.3 100 0.0 CALM 0 0 0 0 1019.1 - 0.0
22/06:30am 6.7 5.9 6.7 100 0.0 CALM 0 0 0 0 1019.2 - 0.0
22/06:19am 6.8 6.1 6.8 100 0.0 CALM 0 0 0 0 1019.0 - 0.0
22/06:03am 6.6 5.8 6.6 100 0.0 CALM 0 0 0 0 1019.1 - 0.0
22/06:00am 6.6 5.8 6.6 100 0.0 CALM 0 0 0 0 1019.1 1019.0 0.0
22/05:36am 6.4 5.6 6.3 99 0.0 CALM 0 0 0 0 1019.1 - 0.0
22/05:30am 6.6 5.8 6.6 100 0.0 CALM 0 0 0 0 1019.1 - 0.0
22/05:26am 6.7 5.9 6.6 99 0.0 CALM 0 0 0 0 1019.1 - 0.0
22/05:00am 6.8 6.1 6.8 100 0.0 CALM 0 0 0 0 1019.0 - 0.0
22/04:55am 7.1 6.4 7.1 100 0.0 CALM 0 0 0 0 1019.1 - 0.0
22/04:53am 7.1 6.4 7.1 100 0.0 CALM 0 0 0 0 1019.1 - 0.0
22/04:47am 7.3 6.7 7.3 100 0.0 CALM 0 0 0 0 1019.0 - 0.0
22/04:30am 7.1 6.4 7.1 100 0.0 CALM 0 0 0 0 1018.9 - 0.0
22/04:25am 7.1 6.4 7.1 100 0.0 CALM 0 0 0 0 1019.0 - 0.0
22/04:21am 7.1 6.4 7.0 99 0.0 CALM 0 0 0 0 1019.0 - 0.0
22/04:07am 7.2 6.6 7.2 100 0.0 CALM 0 0 0 0 1019.0 - 0.0
22/04:00am 7.4 6.8 7.4 100 0.0 CALM 0 0 0 0 1019.0 - 0.0
22/03:30am 8.3 7.9 8.3 100 0.0 CALM 0 0 0 0 1018.8 - 0.0
22/03:23am 7.8 7.3 7.8 100 0.0 CALM 0 0 0 0 1018.8 - 0.0
22/03:00am 8.4 8.0 8.4 100 0.0 CALM 0 0 0 0 1019.0 1018.9 0.0
22/02:44am 8.1 7.7 8.1 100 0.0 CALM 0 0 0 0 1019.1 - 0.0
22/02:41am 8.4 8.0 8.4 100 0.0 CALM 0 0 0 0 1019.2 - 0.0
22/02:40am 8.2 7.8 8.2 100 0.0 CALM 0 0 0 0 1019.1 - 0.0
22/02:34am 8.7 8.4 8.7 100 0.0 CALM 0 0 0 0 1019.1 - 0.0
22/02:30am 8.4 8.0 8.4 100 0.0 CALM 0 0 0 0 1019.2 - 0.0
22/02:00am 8.3 7.9 8.3 100 0.0 CALM 0 0 0 0 1019.5 - 0.0
22/01:57am 8.5 8.2 8.5 100 0.0 CALM 0 0 0 0 1019.5 - 0.0
22/01:31am 9.1 8.9 9.0 99 0.0 CALM 0 0 0 0 1019.6 - 0.0
22/01:30am 9.0 8.8 8.9 99 0.0 CALM 0 0 0 0 1019.6 - 0.0
22/01:00am 10.0 10.1 10.0 100 0.0 CALM 0 0 0 0 1020.1 - 0.0
22/12:52am 9.7 9.7 9.7 100 0.0 CALM 0 0 0 0 1020.2 - 0.0
22/12:44am 9.8 9.8 9.8 100 0.0 CALM 0 0 0 0 1020.2 - 0.0
22/12:30am 9.8 8.7 9.8 100 0.0 NNE 6 7 3 4 1020.2 - 0.0
22/12:19am 9.5 8.3 9.5 100 0.0 NNE 6 9 3 5 1020.2 - 0.0
22/12:00am 9.7 9.6 9.6 99 0.0 CALM 0 0 0 0 1020.2 1020.1 0.0
 
Date/Time
EST
Tmp

°C
App
Tmp
°C
Dew
Point
°C
Rel
Hum
%
Delta-T

°C
Wind Press
QNH
hPa
Press
MSL
hPa
Rain
since
9 am
mm
Dir
 
Spd
km/h
Gust
km/h
Spd
kts
Gust
kts
21/11:30pm 10.5 10.6 10.3 99 0.1 CALM 0 0 0 0 1020.4 - 0.0
21/11:00pm 10.7 10.9 10.5 99 0.1 CALM 0 0 0 0 1020.4 - 0.0
21/10:30pm 10.9 11.1 10.7 99 0.1 CALM 0 0 0 0 1020.4 - 0.0
21/10:00pm 11.2 11.3 10.3 94 0.5 CALM 0 6 0 3 1020.4 - 0.0
21/09:30pm 11.4 11.7 10.8 96 0.3 CALM 0 0 0 0 1020.5 - 0.0
21/09:00pm 12.0 12.1 10.2 89 0.9 CALM 0 0 0 0 1020.5 1020.4 0.0
21/08:30pm 12.4 12.5 10.1 86 1.2 CALM 0 0 0 0 1020.4 - 0.0
21/08:00pm 13.9 14.0 10.3 79 1.9 CALM 0 0 0 0 1020.2 - 0.0
21/07:30pm 14.5 14.6 10.1 75 2.3 CALM 0 0 0 0 1019.9 - 0.0
21/07:00pm 14.8 14.4 9.6 71 2.7 WNW 2 7 1 4 1020.0 - 0.0
21/06:30pm 14.8 13.0 9.6 71 2.7 NW 9 11 5 6 1019.5 - 0.0
21/06:00pm 17.0 16.5 7.9 55 4.6 CALM 0 0 0 0 1019.1 1019.0 0.0
21/05:30pm 18.1 17.6 7.8 51 5.2 CALM 0 0 0 0 1018.9 - 0.0
21/05:00pm 19.7 19.0 7.1 44 6.4 CALM 0 0 0 0 1018.7 - 0.0
21/04:30pm 21.1 20.4 7.0 40 7.2 CALM 0 6 0 3 1018.6 - 0.0
21/04:00pm 21.5 20.7 6.6 38 7.6 CALM 0 0 0 0 1018.6 - 0.0
21/03:30pm 21.6 20.4 6.3 37 7.7 NE 2 9 1 5 1018.6 - 0.0
21/03:00pm 21.9 20.8 8.4 42 7.1 ENE 4 9 2 5 1018.7 1018.6 0.0
21/02:30pm 21.4 19.6 7.3 40 7.3 E 6 11 3 6 1018.7 - 0.0
21/02:00pm 21.3 19.3 6.4 38 7.5 ENE 6 13 3 7 1018.8 - 0.0
21/01:30pm 21.6 20.6 7.4 40 7.3 N 2 9 1 5 1019.0 - 0.0
21/01:00pm 20.9 18.2 7.2 41 7.0 NNW 11 17 6 9 1019.3 - 0.0
21/12:30pm 21.1 19.5 8.0 43 6.8 N 6 15 3 8 1019.7 - 0.0
21/12:00pm 20.3 19.1 6.6 41 6.9 W 2 9 1 5 1020.2 1020.1 0.0
21/11:30am 19.7 18.4 7.8 46 6.1 SSW 4 9 2 5 1020.6 - 0.0
21/11:00am 19.3 18.7 7.4 46 6.1 CALM 0 6 0 3 1020.9 - 0.0
21/10:30am 18.2 17.1 8.5 53 5.0 NNE 4 7 2 4 1021.1 - 0.0
21/10:00am 17.2 16.9 10.1 63 3.8 N 2 9 1 5 1021.3 - 0.0
21/09:30am 15.6 15.5 10.8 73 2.6 N 2 7 1 4 1021.6 - 0.0
21/09:00am 13.9 13.8 9.3 74 2.3 CALM 0 0 0 0 1021.7 1021.6 0.0
21/08:30am 12.7 12.7 9.9 83 1.4 CALM 0 0 0 0 1021.6 - 0.0
21/08:00am 12.6 13.0 11.2 91 0.7 CALM 0 0 0 0 1021.6 - 0.0
21/07:30am 10.4 10.6 10.4 100 0.0 CALM 0 0 0 0 1021.1 - 0.0
21/07:00am 8.2 7.4 8.1 99 0.0 WNW 2 6 1 3 1020.7 - 0.0
21/06:30am 8.0 7.5 7.9 99 0.0 CALM 0 0 0 0 1020.4 - 0.0
21/06:00am 8.2 7.8 8.1 99 0.0 CALM 0 0 0 0 1020.1 1020.0 0.0
21/05:30am 8.0 7.5 7.9 99 0.0 CALM 0 0 0 0 1019.8 - 0.0
21/05:00am 8.3 7.9 8.2 99 0.0 CALM 0 0 0 0 1019.5 - 0.0
21/04:30am 8.7 8.4 8.6 99 0.0 CALM 0 0 0 0 1018.9 - 0.0
21/04:00am 8.7 8.4 8.6 99 0.0 CALM 0 0 0 0 1018.9 - 0.0
21/03:30am 9.3 9.1 9.2 99 0.0 CALM 0 0 0 0 1018.5 - 0.0
21/03:00am 9.9 9.9 9.8 99 0.1 CALM 0 0 0 0 1018.5 1018.4 0.0
21/02:30am 10.0 10.0 9.9 99 0.1 CALM 0 0 0 0 1018.4 - 0.0
21/02:00am 10.0 9.8 9.1 94 0.4 CALM 0 0 0 0 1018.5 - 0.0
21/01:30am 10.8 11.0 10.6 99 0.1 CALM 0 0 0 0 1018.4 - 0.0
21/01:00am 10.9 10.8 9.5 91 0.7 CALM 0 0 0 0 1018.2 - 0.0
21/12:30am 13.3 12.1 9.7 79 1.8 S 6 9 3 5 1018.0 - 0.0
21/12:00am 13.7 12.6 10.5 81 1.7 SSW 7 13 4 7 1018.0 1017.9 0.0
 
Date/Time
EST
Tmp

°C
App
Tmp
°C
Dew
Point
°C
Rel
Hum
%
Delta-T

°C
Wind Press
QNH
hPa
Press
MSL
hPa
Rain
since
9 am
mm
Dir
 
Spd
km/h
Gust
km/h
Spd
kts
Gust
kts
20/11:30pm 13.9 13.4 11.9 88 1.1 S 6 9 3 5 1018.0 - 0.0
20/11:00pm 14.3 14.9 13.2 93 0.6 SSW 2 6 1 3 1017.9 - 0.0
20/10:30pm 14.4 14.3 13.3 93 0.6 SSW 6 9 3 5 1017.9 - 0.0
20/10:00pm 14.6 14.3 13.3 92 0.7 SSW 7 9 4 5 1017.9 - 0.0
20/09:30pm 14.4 15.4 13.3 93 0.6 CALM 0 0 0 0 1017.3 - 0.0
20/09:00pm 14.3 14.8 12.9 91 0.8 WSW 2 7 1 4 1016.8 1016.7 0.0
20/08:30pm 15.4 16.6 13.8 90 0.9 CALM 0 0 0 0 1016.6 - 0.0

Latest Capital City Observations: Canberra | Sydney | Melbourne | Brisbane | Adelaide | Perth | Hobart | Darwin

Other Formats:

Comma delimited format used in spreadsheet applications
http://www.bom.gov.au/fwo/IDN60901/IDN60901.95753.axf

JavaScript Object Notation format (JSON) in row-major order
http://www.bom.gov.au/fwo/IDN60901/IDN60901.95753.json